| time (UTC) | temp C | wind direction | speed KPH | gust KPH | rain 1hr cm | rain 24hr cm | rain mn cm | humidity % | barometer mb |
| 20260508000006 | 17 | 244 | 8.0 | 29.0 | 0.00 | 0.00 | 0.00 | 15 | 1350.0 |
| 20260507235502 | 18 | 240 | 4.8 | 29.0 | 0.00 | 0.00 | 0.00 | 15 | 1349.9 |
| 20260507235000 | 18 | 202 | 6.4 | 25.7 | 0.00 | 0.00 | 0.00 | 16 | 1349.8 |
| 20260507234456 | 17 | 275 | 12.9 | 24.1 | 0.00 | 0.00 | 0.00 | 16 | 1350.2 |
| 20260507233953 | 18 | 227 | 24.1 | 38.6 | 0.00 | 0.00 | 0.00 | 16 | 1350.2 |
| 20260507233450 | 18 | 193 | 25.7 | 30.6 | 0.00 | 0.00 | 0.00 | 17 | 1350.3 |
| 20260507232948 | 18 | 303 | 3.2 | 35.4 | 0.00 | 0.00 | 0.00 | 18 | 1350.3 |
| 20260507232444 | 18 | 187 | 14.5 | 27.4 | 0.00 | 0.00 | 0.00 | 17 | 1350.3 |
| 20260507231942 | 18 | 176 | 16.1 | 38.6 | 0.00 | 0.00 | 0.00 | 18 | 1350.2 |
| 20260507231438 | 18 | 273 | 20.9 | 32.2 | 0.00 | 0.00 | 0.00 | 17 | 1350.4 |
| 20260507230935 | 18 | 302 | 11.3 | 35.4 | 0.00 | 0.00 | 0.00 | 18 | 1350.3 |
| 20260507230432 | 19 | 203 | 4.8 | 40.2 | 0.00 | 0.00 | 0.00 | 17 | 1350.3 |
| 20260507225932 | 18 | 197 | 4.8 | 37.0 | 0.00 | 0.00 | 0.00 | 18 | 1350.4 |
| 20260507225428 | 18 | 243 | 22.5 | 38.6 | 0.00 | 0.00 | 0.00 | 18 | 1350.2 |
| 20260507224925 | 18 | 286 | 17.7 | 37.0 | 0.00 | 0.00 | 0.00 | 17 | 1350.3 |
| 20260507224421 | 18 | 304 | 37.0 | 38.6 | 0.00 | 0.00 | 0.00 | 16 | 1350.2 |
| 20260507223918 | 18 | 264 | 24.1 | 32.2 | 0.00 | 0.00 | 0.00 | 17 | 1350.0 |
| 20260507223414 | 18 | 252 | 32.2 | 32.2 | 0.00 | 0.00 | 0.00 | 17 | 1350.4 |
| 20260507222911 | 19 | 225 | 4.8 | 33.8 | 0.00 | 0.00 | 0.00 | 15 | 1350.6 |
| 20260507222408 | 19 | 247 | 17.7 | 33.8 | 0.00 | 0.00 | 0.00 | 16 | 1350.3 |
| 20260507221905 | 18 | 240 | 9.7 | 24.1 | 0.00 | 0.00 | 0.00 | 12 | 1350.6 |
| 20260507221401 | 18 | 204 | 19.3 | 41.8 | 0.00 | 0.00 | 0.00 | 13 | 1350.4 |
| 20260507220857 | 18 | 291 | 11.3 | 37.0 | 0.00 | 0.00 | 0.00 | 14 | 1350.2 |
| 20260507220355 | 18 | 240 | 16.1 | 51.5 | 0.00 | 0.00 | 0.00 | 13 | 1350.4 |
| 20260507215852 | 19 | 245 | 30.6 | 37.0 | 0.00 | 0.00 | 0.00 | 12 | 1350.6 |
| 20260507215348 | 18 | 307 | 16.1 | 41.8 | 0.00 | 0.00 | 0.00 | 13 | 1350.4 |
| 20260507214845 | 18 | 252 | 24.1 | 40.2 | 0.00 | 0.00 | 0.00 | 12 | 1350.4 |
| 20260507214343 | 18 | 277 | 25.7 | 37.0 | 0.00 | 0.00 | 0.00 | 12 | 1350.7 |
| 20260507213838 | 18 | 264 | 9.7 | 43.5 | 0.00 | 0.00 | 0.00 | 11 | 1350.7 |
| 20260507213335 | 18 | 289 | 17.7 | 48.3 | 0.00 | 0.00 | 0.00 | 11 | 1350.8 |
| 20260507212832 | 18 | 280 | 8.0 | 37.0 | 0.00 | 0.00 | 0.00 | 11 | 1350.8 |
| 20260507212327 | 19 | 349 | 8.0 | 32.2 | 0.00 | 0.00 | 0.00 | 10 | 1350.9 |
| 20260507211824 | 18 | 298 | 27.4 | 32.2 | 0.00 | 0.00 | 0.00 | 10 | 1350.8 |
| 20260507211321 | 18 | 218 | 24.1 | 45.1 | 0.00 | 0.00 | 0.00 | 11 | 1350.9 |
| 20260507210818 | 18 | 233 | 9.7 | 48.3 | 0.00 | 0.00 | 0.00 | 10 | 1350.8 |
| 20260507210315 | 18 | 259 | 30.6 | 48.3 | 0.00 | 0.00 | 0.00 | 10 | 1350.9 |
| 20260507205811 | 18 | 234 | 16.1 | 41.8 | 0.00 | 0.00 | 0.00 | 10 | 1351.2 |
| 20260507205309 | 18 | 242 | 16.1 | 27.4 | 0.00 | 0.00 | 0.00 | 9 | 1350.9 |
| 20260507204804 | 17 | 304 | 27.4 | 59.5 | 0.00 | 0.00 | 0.00 | 10 | 1351.1 |
| 20260507204302 | 18 | 311 | 14.5 | 41.8 | 0.00 | 0.00 | 0.00 | 10 | 1351.3 |
| 20260507203800 | 18 | 299 | 14.5 | 45.1 | 0.00 | 0.00 | 0.00 | 10 | 1351.7 |
| 20260507203258 | 18 | 289 | 12.9 | 46.7 | 0.00 | 0.00 | 0.00 | 10 | 1351.6 |
| 20260507202753 | 17 | 235 | 24.1 | 30.6 | 0.00 | 0.00 | 0.00 | 9 | 1351.4 |
| 20260507202249 | 17 | 221 | 25.7 | 38.6 | 0.00 | 0.00 | 0.00 | 10 | 1351.3 |
| 20260507201744 | 17 | 240 | 11.3 | 41.8 | 0.00 | 0.00 | 0.00 | 9 | 1351.7 |
| 20260507201241 | 18 | 249 | 25.7 | 25.7 | 0.00 | 0.00 | 0.00 | 9 | 1351.6 |
| 20260507200738 | 17 | 216 | 32.2 | 48.3 | 0.00 | 0.00 | 0.00 | 10 | 1351.8 |
| 20260507200233 | 17 | 231 | 14.5 | 41.8 | 0.00 | 0.00 | 0.00 | 10 | 1351.7 |
| 20260507195730 | 18 | 222 | 19.3 | 45.1 | 0.00 | 0.00 | 0.00 | 11 | 1351.4 |
| 20260507195227 | 17 | 226 | 17.7 | 35.4 | 0.00 | 0.00 | 0.00 | 10 | 1351.6 |
| 20260507194725 | 17 | 254 | 14.5 | 41.8 | 0.00 | 0.00 | 0.00 | 9 | 1351.9 |
| 20260507194220 | 17 | 238 | 17.7 | 32.2 | 0.00 | 0.00 | 0.00 | 11 | 1351.7 |
| 20260507193717 | 18 | 222 | 16.1 | 56.3 | 0.00 | 0.00 | 0.00 | 10 | 1351.8 |
| 20260507193214 | 17 | 257 | 14.5 | 41.8 | 0.00 | 0.00 | 0.00 | 10 | 1351.7 |
| 20260507192710 | 18 | 232 | 8.0 | 33.8 | 0.00 | 0.00 | 0.00 | 11 | 1351.8 |
| 20260507192207 | 18 | 253 | 22.5 | 37.0 | 0.00 | 0.00 | 0.00 | 11 | 1352.1 |
| 20260507191703 | 17 | 289 | 9.7 | 48.3 | 0.00 | 0.00 | 0.00 | 10 | 1351.8 |
| 20260507191201 | 17 | 304 | 22.5 | 38.6 | 0.00 | 0.00 | 0.00 | 12 | 1352.2 |
| 20260507190657 | 18 | 242 | 8.0 | 30.6 | 0.00 | 0.00 | 0.00 | 11 | 1351.7 |
| 20260507190156 | 18 | 242 | 9.7 | 37.0 | 0.00 | 0.00 | 0.00 | 11 | 1351.8 |
| 20260507185654 | 17 | 299 | 17.7 | 38.6 | 0.00 | 0.00 | 0.00 | 13 | 1352.1 |
| 20260507185150 | 18 | 296 | 11.3 | 33.8 | 0.00 | 0.00 | 0.00 | 12 | 1352.2 |
| 20260507184648 | 17 | 197 | 29.0 | 54.7 | 0.00 | 0.00 | 0.00 | 12 | 1352.2 |
| 20260507184146 | 17 | 201 | 12.9 | 40.2 | 0.00 | 0.00 | 0.00 | 12 | 1352.3 |
| 20260507183642 | 17 | 228 | 25.7 | 40.2 | 0.00 | 0.00 | 0.00 | 13 | 1352.2 |
| 20260507183139 | 17 | 287 | 27.4 | 33.8 | 0.00 | 0.00 | 0.00 | 14 | 1352.2 |
| 20260507182636 | 16 | 271 | 14.5 | 41.8 | 0.00 | 0.00 | 0.00 | 12 | 1352.3 |
| 20260507182132 | 17 | 303 | 22.5 | 30.6 | 0.00 | 0.00 | 0.00 | 11 | 1352.6 |
| 20260507181628 | 17 | 215 | 27.4 | 33.8 | 0.00 | 0.00 | 0.00 | 11 | 1352.4 |
| 20260507181124 | 18 | 243 | 14.5 | 38.6 | 0.00 | 0.00 | 0.00 | 13 | 1352.4 |
| 20260507180621 | 17 | 258 | 8.0 | 27.4 | 0.00 | 0.00 | 0.00 | 13 | 1352.3 |
| 20260507180118 | 17 | 235 | 22.5 | 37.0 | 0.00 | 0.00 | 0.00 | 13 | 1352.7 |
| 20260507175614 | 16 | 217 | 29.0 | 37.0 | 0.00 | 0.00 | 0.00 | 16 | 1352.9 |
| 20260507175111 | 16 | 220 | 9.7 | 35.4 | 0.00 | 0.00 | 0.00 | 16 | 1352.9 |
| 20260507174609 | 15 | 169 | 8.0 | 32.2 | 0.00 | 0.00 | 0.00 | 22 | 1353.1 |
| 20260507174106 | 15 | 90 | 0.0 | 24.1 | 0.00 | 0.00 | 0.00 | 24 | 1352.9 |
| 20260507173603 | 15 | 111 | 6.4 | 14.5 | 0.00 | 0.00 | 0.00 | 26 | 1353.3 |
| 20260507173100 | 14 | 178 | 9.7 | 27.4 | 0.00 | 0.00 | 0.00 | 27 | 1353.2 |
| 20260507172556 | 13 | 221 | 8.0 | 27.4 | 0.00 | 0.00 | 0.00 | 29 | 1353.2 |
| 20260507172053 | 13 | 199 | 11.3 | 27.4 | 0.00 | 0.00 | 0.00 | 29 | 1353.3 |
| 20260507171548 | 12 | 214 | 22.5 | 30.6 | 0.00 | 0.00 | 0.00 | 31 | 1353.8 |
| 20260507171046 | 12 | 267 | 14.5 | 20.9 | 0.00 | 0.00 | 0.00 | 31 | 1353.6 |
| 20260507170543 | 12 | 259 | 4.8 | 17.7 | 0.00 | 0.00 | 0.00 | 31 | 1353.3 |
| 20260507170040 | 12 | 250 | 0.0 | 17.7 | 0.00 | 0.00 | 0.00 | 32 | 1353.6 |
| 20260507165535 | 12 | 241 | 6.4 | 32.2 | 0.00 | 0.00 | 0.00 | 32 | 1353.6 |
| 20260507165032 | 13 | 234 | 20.9 | 25.7 | 0.00 | 0.00 | 0.00 | 30 | 1353.7 |
| 20260507164528 | 12 | 213 | 8.0 | 17.7 | 0.00 | 0.00 | 0.00 | 33 | 1353.8 |
| 20260507164025 | 11 | 209 | 9.7 | 27.4 | 0.00 | 0.00 | 0.00 | 35 | 1353.8 |
| 20260507163522 | 11 | 205 | 9.7 | 22.5 | 0.00 | 0.00 | 0.00 | 35 | 1354.1 |
| 20260507163021 | 11 | 224 | 12.9 | 29.0 | 0.00 | 0.00 | 0.00 | 35 | 1353.8 |
| 20260507162515 | 11 | 221 | 16.1 | 27.4 | 0.00 | 0.00 | 0.00 | 38 | 1353.9 |
| 20260507162012 | 10 | 292 | 12.9 | 27.4 | 0.00 | 0.00 | 0.00 | 38 | 1353.9 |
| 20260507161508 | 10 | 259 | 14.5 | 25.7 | 0.00 | 0.00 | 0.00 | 40 | 1354.2 |
| 20260507161005 | 10 | 215 | 11.3 | 20.9 | 0.00 | 0.00 | 0.00 | 43 | 1353.9 |
| 20260507160501 | 10 | 231 | 14.5 | 25.7 | 0.00 | 0.00 | 0.00 | 41 | 1353.8 |
| 20260507155956 | 9 | 197 | 11.3 | 24.1 | 0.00 | 0.00 | 0.00 | 45 | 1354.1 |
| 20260507155453 | 9 | 218 | 17.7 | 29.0 | 0.00 | 0.00 | 0.00 | 46 | 1353.9 |
| 20260507154950 | 8 | 222 | 8.0 | 16.1 | 0.00 | 0.00 | 0.00 | 48 | 1354.1 |
| 20260507154447 | 8 | 204 | 14.5 | 22.5 | 0.00 | 0.00 | 0.00 | 49 | 1354.1 |
| 20260507153944 | 8 | 203 | 14.5 | 14.5 | 0.00 | 0.00 | 0.00 | 50 | 1354.3 |
| 20260507153441 | 8 | 210 | 20.9 | 20.9 | 0.00 | 0.00 | 0.00 | 50 | 1354.2 |
| 20260507152937 | 8 | 154 | 6.4 | 22.5 | 0.00 | 0.00 | 0.00 | 50 | 1354.2 |
| 20260507152433 | 7 | 187 | 4.8 | 17.7 | 0.00 | 0.00 | 0.00 | 51 | 1354.1 |
| 20260507151929 | 7 | 200 | 6.4 | 12.9 | 0.00 | 0.00 | 0.00 | 52 | 1354.2 |
| 20260507151426 | 7 | 203 | 9.7 | 9.7 | 0.00 | 0.00 | 0.00 | 53 | 1354.4 |
| 20260507150923 | 7 | 185 | 8.0 | 14.5 | 0.00 | 0.00 | 0.00 | 53 | 1354.1 |
| 20260507150420 | 7 | 139 | 3.2 | 17.7 | 0.00 | 0.00 | 0.00 | 55 | 1354.4 |
| 20260507145916 | 7 | 225 | 3.2 | 11.3 | 0.00 | 0.00 | 0.00 | 56 | 1354.3 |
| 20260507145412 | 6 | 211 | 9.7 | 20.9 | 0.00 | 0.00 | 0.00 | 56 | 1354.6 |
| 20260507144909 | 7 | 117 | 1.6 | 9.7 | 0.00 | 0.00 | 0.00 | 57 | 1354.3 |
| 20260507144406 | 6 | 209 | 6.4 | 11.3 | 0.00 | 0.00 | 0.00 | 58 | 1354.3 |
| 20260507143903 | 6 | 166 | 14.5 | 17.7 | 0.00 | 0.00 | 0.00 | 58 | 1354.3 |
| 20260507143400 | 6 | 225 | 9.7 | 12.9 | 0.00 | 0.00 | 0.00 | 62 | 1354.6 |
| 20260507142857 | 5 | 207 | 9.7 | 16.1 | 0.00 | 0.00 | 0.00 | 64 | 1354.3 |
| 20260507142353 | 6 | 165 | 0.0 | 4.8 | 0.00 | 0.00 | 0.00 | 61 | 1354.4 |
| 20260507141850 | 7 | 131 | 0.0 | 4.8 | 0.00 | 0.00 | 0.00 | 62 | 1354.2 |
| 20260507141346 | 5 | 93 | 4.8 | 8.0 | 0.00 | 0.00 | 0.00 | 69 | 1354.4 |
| 20260507140843 | 6 | 108 | 3.2 | 6.4 | 0.00 | 0.00 | 0.00 | 67 | 1354.4 |
| 20260507140340 | 3 | 186 | 1.6 | 8.0 | 0.00 | 0.00 | 0.00 | 73 | 1354.4 |
| 20260507135838 | 5 | 150 | 3.2 | 4.8 | 0.00 | 0.00 | 0.00 | 71 | 1354.6 |
| 20260507135334 | 4 | 121 | 3.2 | 4.8 | 0.00 | 0.00 | 0.00 | 73 | 1354.7 |
| 20260507134832 | 3 | 110 | 3.2 | 4.8 | 0.00 | 0.00 | 0.00 | 74 | 1354.7 |
| 20260507134327 | 3 | 84 | 3.2 | 8.0 | 0.00 | 0.00 | 0.00 | 75 | 1354.4 |
| 20260507133824 | 4 | 95 | 3.2 | 4.8 | 0.00 | 0.00 | 0.00 | 72 | 1354.2 |
| 20260507133319 | 2 | 38 | 3.2 | 6.4 | 0.00 | 0.00 | 0.00 | 80 | 1354.6 |
| 20260507132818 | 1 | 101 | 4.8 | 6.4 | 0.00 | 0.00 | 0.00 | 83 | 1354.4 |
| 20260507132314 | 0 | 64 | 6.4 | 6.4 | 0.00 | 0.00 | 0.00 | 89 | 1354.3 |
| 20260507131811 | -1 | 90 | 0.0 | 4.8 | 0.00 | 0.00 | 0.00 | 93 | 1354.4 |
| 20260507131308 | -1 | 106 | 4.8 | 4.8 | 0.00 | 0.00 | 0.00 | 93 | 1354.7 |
| 20260507130804 | -1 | 71 | 0.0 | 6.4 | 0.00 | 0.00 | 0.00 | 93 | 1354.4 |
| 20260507130302 | -1 | 90 | 3.2 | 4.8 | 0.00 | 0.00 | 0.00 | 94 | 1354.6 |
| 20260507125801 | -1 | 102 | 1.6 | 4.8 | 0.00 | 0.00 | 0.00 | 94 | 1354.4 |
| 20260507125258 | -1 | 108 | 3.2 | 4.8 | 0.00 | 0.00 | 0.00 | 94 | 1354.7 |
| 20260507124755 | -1 | 100 | 4.8 | 4.8 | 0.00 | 0.00 | 0.00 | 94 | 1354.7 |
| 20260507124251 | -1 | 108 | 3.2 | 4.8 | 0.00 | 0.00 | 0.00 | 94 | 1354.4 |
| 20260507123750 | -1 | 72 | 4.8 | 8.0 | 0.00 | 0.00 | 0.00 | 94 | 1354.4 |
| 20260507123247 | -1 | 73 | 1.6 | 4.8 | 0.00 | 0.00 | 0.00 | 94 | 1354.6 |
| 20260507122742 | -1 | 79 | 4.8 | 4.8 | 0.00 | 0.00 | 0.00 | 94 | 1354.4 |
| 20260507122238 | -1 | 106 | 3.2 | 4.8 | 0.00 | 0.00 | 0.00 | 94 | 1354.4 |
| 20260507121734 | -1 | 63 | 4.8 | 6.4 | 0.00 | 0.00 | 0.00 | 95 | 1354.6 |
| 20260507121230 | -1 | 90 | 4.8 | 6.4 | 0.00 | 0.00 | 0.00 | 95 | 1354.8 |
| 20260507120726 | -1 | 94 | 3.2 | 4.8 | 0.00 | 0.00 | 0.00 | 95 | 1354.8 |
| 20260507120224 | -1 | 99 | 3.2 | 6.4 | 0.00 | 0.00 | 0.00 | 95 | 1354.7 |
| 20260507115719 | -1 | 95 | 3.2 | 4.8 | 0.00 | 0.00 | 0.00 | 95 | 1354.8 |
| 20260507115216 | -1 | 87 | 4.8 | 4.8 | 0.00 | 0.00 | 0.00 | 94 | 1354.7 |
| 20260507114711 | -2 | 87 | 4.8 | 4.8 | 0.00 | 0.00 | 0.00 | 94 | 1354.8 |
| 20260507114209 | -1 | 90 | 1.6 | 6.4 | 0.00 | 0.00 | 0.00 | 94 | 1354.7 |
| 20260507113706 | -2 | 90 | 1.6 | 4.8 | 0.00 | 0.00 | 0.00 | 94 | 1354.6 |
| 20260507113203 | -2 | 82 | 4.8 | 6.4 | 0.00 | 0.00 | 0.00 | 94 | 1354.4 |
| 20260507112701 | -1 | 101 | 4.8 | 6.4 | 0.00 | 0.00 | 0.00 | 94 | 1354.6 |
| 20260507112157 | -2 | 111 | 1.6 | 4.8 | 0.00 | 0.00 | 0.00 | 94 | 1354.7 |
| 20260507111655 | -1 | 78 | 3.2 | 6.4 | 0.00 | 0.00 | 0.00 | 94 | 1354.8 |
| 20260507111152 | -1 | 85 | 4.8 | 6.4 | 0.00 | 0.00 | 0.00 | 94 | 1354.4 |
| 20260507110647 | -1 | 75 | 4.8 | 8.0 | 0.00 | 0.00 | 0.00 | 94 | 1354.6 |
| 20260507110144 | -1 | 79 | 6.4 | 8.0 | 0.00 | 0.00 | 0.00 | 94 | 1354.7 |
| 20260507105641 | -2 | 74 | 4.8 | 8.0 | 0.00 | 0.00 | 0.00 | 94 | 1354.6 |
| 20260507105137 | -2 | 77 | 4.8 | 6.4 | 0.00 | 0.00 | 0.00 | 94 | 1354.7 |
| 20260507104634 | -2 | 78 | 3.2 | 6.4 | 0.00 | 0.00 | 0.00 | 94 | 1354.7 |
| 20260507104131 | -2 | 75 | 3.2 | 4.8 | 0.00 | 0.00 | 0.00 | 94 | 1354.9 |
| 20260507103627 | -2 | 63 | 3.2 | 3.2 | 0.00 | 0.00 | 0.00 | 93 | 1354.7 |
| 20260507103124 | -2 | 90 | 4.8 | 4.8 | 0.00 | 0.00 | 0.00 | 94 | 1354.7 |
| 20260507102620 | -1 | 90 | 3.2 | 4.8 | 0.00 | 0.00 | 0.00 | 94 | 1354.7 |
| 20260507102116 | -2 | 140 | 0.0 | 4.8 | 0.00 | 0.00 | 0.00 | 93 | 1354.7 |
| 20260507101613 | -2 | 85 | 3.2 | 4.8 | 0.00 | 0.00 | 0.00 | 93 | 1354.6 |
| 20260507101109 | -2 | 94 | 3.2 | 6.4 | 0.00 | 0.00 | 0.00 | 93 | 1354.4 |
| 20260507100606 | -2 | 77 | 4.8 | 4.8 | 0.00 | 0.00 | 0.00 | 93 | 1354.8 |
| 20260507100104 | -2 | 90 | 4.8 | 4.8 | 0.00 | 0.00 | 0.00 | 93 | 1354.9 |
| 20260507095602 | -2 | 117 | 3.2 | 4.8 | 0.00 | 0.00 | 0.00 | 92 | 1354.8 |
| 20260507095058 | -1 | 61 | 3.2 | 4.8 | 0.00 | 0.00 | 0.00 | 92 | 1354.7 |
| 20260507094554 | -1 | 84 | 1.6 | 4.8 | 0.00 | 0.00 | 0.00 | 92 | 1354.7 |
| 20260507094051 | -1 | 69 | 6.4 | 8.0 | 0.00 | 0.00 | 0.00 | 92 | 1354.6 |
| 20260507093549 | -2 | 60 | 4.8 | 6.4 | 0.00 | 0.00 | 0.00 | 92 | 1354.6 |
| 20260507093047 | -2 | 65 | 4.8 | 4.8 | 0.00 | 0.00 | 0.00 | 92 | 1354.7 |
| 20260507092543 | -2 | 49 | 4.8 | 4.8 | 0.00 | 0.00 | 0.00 | 91 | 1355.1 |
| 20260507092040 | -2 | 66 | 3.2 | 6.4 | 0.00 | 0.00 | 0.00 | 91 | 1354.9 |
| 20260507091537 | -2 | 33 | 4.8 | 6.4 | 0.00 | 0.00 | 0.00 | 90 | 1354.8 |
| 20260507091033 | -1 | 75 | 8.0 | 8.0 | 0.00 | 0.00 | 0.00 | 90 | 1354.9 |
| 20260507090529 | -1 | 46 | 6.4 | 8.0 | 0.00 | 0.00 | 0.00 | 90 | 1354.8 |
| 20260507090026 | -1 | 42 | 4.8 | 8.0 | 0.00 | 0.00 | 0.00 | 90 | 1354.8 |
| 20260507085523 | -1 | 48 | 3.2 | 9.7 | 0.00 | 0.00 | 0.00 | 90 | 1354.7 |
| 20260507085020 | -1 | 12 | 6.4 | 12.9 | 0.00 | 0.00 | 0.00 | 88 | 1354.7 |
| 20260507084516 | 0 | 12 | 0.0 | 6.4 | 0.00 | 0.00 | 0.00 | 86 | 1354.8 |
| 20260507084014 | 0 | 79 | 4.8 | 11.3 | 0.00 | 0.00 | 0.00 | 86 | 1354.6 |
| 20260507083509 | 0 | 105 | 6.4 | 14.5 | 0.00 | 0.00 | 0.00 | 86 | 1354.8 |
| 20260507083007 | 0 | 96 | 8.0 | 16.1 | 0.00 | 0.00 | 0.00 | 86 | 1354.7 |
| 20260507082503 | 1 | 106 | 6.4 | 9.7 | 0.00 | 0.00 | 0.00 | 86 | 1354.8 |
| 20260507081959 | 1 | 53 | 14.5 | 16.1 | 0.00 | 0.00 | 0.00 | 86 | 1354.9 |
| 20260507081455 | 1 | 68 | 14.5 | 14.5 | 0.00 | 0.00 | 0.00 | 86 | 1354.8 |
| 20260507080952 | 1 | 114 | 20.9 | 20.9 | 0.00 | 0.00 | 0.00 | 86 | 1354.4 |
| 20260507080448 | 1 | 83 | 14.5 | 19.3 | 0.00 | 0.00 | 0.00 | 86 | 1354.4 |
| 20260507075944 | 1 | 94 | 9.7 | 20.9 | 0.00 | 0.00 | 0.00 | 85 | 1355.1 |
| 20260507075440 | 1 | 123 | 11.3 | 22.5 | 0.00 | 0.00 | 0.00 | 86 | 1354.6 |
| 20260507074937 | 1 | 80 | 9.7 | 22.5 | 0.00 | 0.00 | 0.00 | 85 | 1354.4 |
| 20260507074434 | 1 | 113 | 6.4 | 20.9 | 0.00 | 0.00 | 0.00 | 85 | 1354.4 |
| 20260507073932 | 1 | 84 | 8.0 | 19.3 | 0.00 | 0.00 | 0.00 | 85 | 1354.3 |
| 20260507073428 | 1 | 59 | 9.7 | 17.7 | 0.00 | 0.00 | 0.00 | 85 | 1354.6 |
| 20260507072925 | 1 | 68 | 6.4 | 20.9 | 0.00 | 0.00 | 0.00 | 85 | 1354.3 |
| 20260507072422 | 1 | 81 | 8.0 | 17.7 | 0.00 | 0.00 | 0.00 | 85 | 1354.4 |
| 20260507071920 | 1 | 71 | 9.7 | 19.3 | 0.00 | 0.00 | 0.00 | 84 | 1354.2 |
| 20260507071417 | 1 | 109 | 11.3 | 20.9 | 0.00 | 0.00 | 0.00 | 84 | 1354.6 |
| 20260507070913 | 1 | 157 | 4.8 | 17.7 | 0.00 | 0.00 | 0.00 | 85 | 1354.4 |
| 20260507070410 | 1 | 80 | 6.4 | 19.3 | 0.00 | 0.00 | 0.00 | 84 | 1354.3 |
| 20260507065907 | 1 | 86 | 6.4 | 19.3 | 0.00 | 0.00 | 0.00 | 84 | 1354.6 |
| 20260507065404 | 1 | 127 | 12.9 | 20.9 | 0.00 | 0.00 | 0.00 | 85 | 1354.6 |
| 20260507064901 | 1 | 124 | 9.7 | 19.3 | 0.00 | 0.00 | 0.00 | 84 | 1354.4 |
| 20260507064359 | 1 | 127 | 12.9 | 24.1 | 0.00 | 0.00 | 0.00 | 84 | 1354.4 |
| 20260507063857 | 1 | 119 | 9.7 | 25.7 | 0.00 | 0.00 | 0.00 | 84 | 1354.4 |
| 20260507063354 | 1 | 110 | 9.7 | 25.7 | 0.00 | 0.00 | 0.00 | 84 | 1354.3 |
| 20260507062850 | 1 | 90 | 4.8 | 20.9 | 0.00 | 0.00 | 0.00 | 84 | 1354.1 |
| 20260507062347 | 1 | 111 | 19.3 | 20.9 | 0.00 | 0.00 | 0.00 | 84 | 1354.1 |
| 20260507061845 | 1 | 76 | 8.0 | 20.9 | 0.00 | 0.00 | 0.00 | 84 | 1354.3 |
| 20260507061343 | 1 | 114 | 22.5 | 22.5 | 0.00 | 0.00 | 0.00 | 84 | 1353.8 |
| 20260507060841 | 1 | 110 | 30.6 | 30.6 | 0.00 | 0.00 | 0.00 | 85 | 1354.3 |
| 20260507060337 | 1 | 68 | 3.2 | 29.0 | 0.00 | 0.00 | 0.00 | 85 | 1354.1 |
| 20260507055834 | 1 | 62 | 9.7 | 22.5 | 0.00 | 0.03 | 0.03 | 85 | 1353.9 |
| 20260507055329 | 1 | 86 | 6.4 | 25.7 | 0.00 | 0.03 | 0.03 | 84 | 1353.9 |
| 20260507054826 | 1 | 115 | 24.1 | 25.7 | 0.00 | 0.03 | 0.03 | 84 | 1353.9 |
| 20260507054322 | 1 | 96 | 14.5 | 30.6 | 0.00 | 0.03 | 0.03 | 84 | 1354.1 |
| 20260507053820 | 1 | 98 | 12.9 | 32.2 | 0.00 | 0.03 | 0.03 | 84 | 1353.9 |
| 20260507053317 | 1 | 132 | 20.9 | 25.7 | 0.00 | 0.03 | 0.03 | 83 | 1353.6 |
| 20260507052816 | 1 | 145 | 14.5 | 30.6 | 0.00 | 0.03 | 0.03 | 82 | 1353.9 |
| 20260507052312 | 1 | 130 | 12.9 | 22.5 | 0.00 | 0.03 | 0.03 | 82 | 1353.8 |
| 20260507051810 | 1 | 65 | 20.9 | 24.1 | 0.00 | 0.03 | 0.03 | 82 | 1353.8 |
| 20260507051308 | 1 | 133 | 17.7 | 29.0 | 0.00 | 0.03 | 0.03 | 81 | 1353.6 |
| 20260507050804 | 2 | 123 | 12.9 | 30.6 | 0.00 | 0.03 | 0.03 | 80 | 1353.8 |
| 20260507050300 | 2 | 170 | 11.3 | 27.4 | 0.00 | 0.03 | 0.03 | 75 | 1353.6 |
| 20260507045757 | 2 | 150 | 0.0 | 25.7 | 0.00 | 0.03 | 0.03 | 76 | 1353.6 |
| 20260507045254 | 3 | 131 | 9.7 | 27.4 | 0.00 | 0.03 | 0.03 | 70 | 1353.3 |
| 20260507044751 | 3 | 119 | 4.8 | 20.9 | 0.00 | 0.03 | 0.03 | 69 | 1353.7 |
| 20260507044247 | 2 | 105 | 4.8 | 4.8 | 0.00 | 0.03 | 0.03 | 59 | 1353.4 |
| 20260507043744 | 2 | 98 | 3.2 | 4.8 | 0.00 | 0.03 | 0.03 | 58 | 1353.6 |
| 20260507043240 | 3 | 45 | 4.8 | 4.8 | 0.00 | 0.03 | 0.03 | 58 | 1353.1 |
| 20260507042737 | 4 | 112 | 4.8 | 6.4 | 0.00 | 0.03 | 0.03 | 53 | 1353.2 |
| 20260507042232 | 4 | 143 | 4.8 | 6.4 | 0.00 | 0.03 | 0.03 | 53 | 1352.9 |
| 20260507041730 | 4 | 115 | 3.2 | 6.4 | 0.00 | 0.03 | 0.03 | 53 | 1353.2 |
| 20260507041226 | 5 | 108 | 4.8 | 6.4 | 0.00 | 0.03 | 0.03 | 51 | 1353.1 |
| 20260507040723 | 5 | 121 | 4.8 | 6.4 | 0.00 | 0.03 | 0.03 | 50 | 1352.8 |
| 20260507040219 | 5 | 170 | 3.2 | 11.3 | 0.00 | 0.03 | 0.03 | 48 | 1352.9 |
| 20260507035715 | 5 | 140 | 6.4 | 8.0 | 0.00 | 0.03 | 0.03 | 49 | 1352.9 |
| 20260507035211 | 5 | 180 | 1.6 | 6.4 | 0.00 | 0.03 | 0.03 | 51 | 1353.1 |
| 20260507034708 | 5 | 144 | 6.4 | 8.0 | 0.00 | 0.03 | 0.03 | 50 | 1353.1 |
| 20260507034206 | 4 | 114 | 4.8 | 6.4 | 0.00 | 0.03 | 0.03 | 51 | 1352.4 |
| 20260507033704 | 4 | 109 | 3.2 | 6.4 | 0.00 | 0.03 | 0.03 | 51 | 1352.4 |
| 20260507033201 | 5 | 108 | 4.8 | 6.4 | 0.00 | 0.03 | 0.03 | 50 | 1352.1 |
| 20260507032658 | 5 | 105 | 4.8 | 8.0 | 0.00 | 0.03 | 0.03 | 49 | 1352.4 |
| 20260507032154 | 6 | 90 | 3.2 | 4.8 | 0.00 | 0.03 | 0.03 | 45 | 1352.4 |
| 20260507031651 | 6 | 235 | 8.0 | 11.3 | 0.00 | 0.03 | 0.03 | 45 | 1352.1 |
| 20260507031147 | 6 | 235 | 3.2 | 6.4 | 0.00 | 0.03 | 0.03 | 45 | 1352.3 |
| 20260507030644 | 7 | 187 | 0.0 | 9.7 | 0.00 | 0.03 | 0.03 | 43 | 1352.1 |
| 20260507030142 | 7 | 111 | 0.0 | 12.9 | 0.00 | 0.03 | 0.03 | 42 | 1351.9 |
| 20260507025639 | 7 | 262 | 8.0 | 11.3 | 0.00 | 0.03 | 0.03 | 43 | 1351.7 |
| 20260507025136 | 7 | 180 | 3.2 | 14.5 | 0.00 | 0.03 | 0.03 | 42 | 1351.4 |
| 20260507024634 | 7 | 285 | 6.4 | 20.9 | 0.00 | 0.03 | 0.03 | 42 | 1351.3 |
| 20260507024131 | 7 | 183 | 8.0 | 17.7 | 0.00 | 0.03 | 0.03 | 41 | 1351.3 |
| 20260507023626 | 7 | 256 | 8.0 | 17.7 | 0.00 | 0.03 | 0.03 | 41 | 1351.3 |
| 20260507023124 | 8 | 243 | 29.0 | 30.6 | 0.00 | 0.03 | 0.03 | 40 | 1351.1 |
| 20260507022621 | 8 | 256 | 25.7 | 30.6 | 0.00 | 0.03 | 0.03 | 40 | 1351.1 |
| 20260507022116 | 8 | 220 | 20.9 | 30.6 | 0.00 | 0.03 | 0.03 | 40 | 1351.1 |
| 20260507021613 | 8 | 191 | 9.7 | 33.8 | 0.00 | 0.03 | 0.03 | 40 | 1350.7 |
| 20260507021109 | 8 | 237 | 17.7 | 29.0 | 0.00 | 0.03 | 0.03 | 40 | 1350.9 |
| 20260507020607 | 8 | 251 | 12.9 | 27.4 | 0.00 | 0.03 | 0.03 | 41 | 1350.8 |
| 20260507015602 | 8 | 263 | 14.5 | 29.0 | 0.00 | 0.03 | 0.03 | 41 | 1350.6 |
| 20260507015059 | 8 | 249 | 4.8 | 16.1 | 0.00 | 0.03 | 0.03 | 41 | 1350.6 |
| 20260507014555 | 8 | 249 | 8.0 | 19.3 | 0.00 | 0.03 | 0.03 | 40 | 1350.6 |
| 20260507014051 | 8 | 287 | 8.0 | 20.9 | 0.00 | 0.03 | 0.03 | 42 | 1350.7 |
| 20260507013548 | 8 | 281 | 11.3 | 25.7 | 0.00 | 0.03 | 0.03 | 44 | 1350.8 |
| 20260507013045 | 8 | 247 | 8.0 | 12.9 | 0.00 | 0.03 | 0.03 | 45 | 1350.8 |
| 20260507012542 | 8 | 176 | 9.7 | 38.6 | 0.00 | 0.03 | 0.03 | 48 | 1350.9 |
| 20260507012038 | 7 | 211 | 4.8 | 32.2 | 0.00 | 0.03 | 0.03 | 52 | 1350.4 |
| 20260507011536 | 7 | 221 | 20.9 | 24.1 | 0.00 | 0.03 | 0.03 | 55 | 1350.3 |
| 20260507011032 | 7 | 106 | 0.0 | 3.2 | 0.00 | 0.03 | 0.03 | 61 | 1350.0 |
| 20260507010526 | 8 | 194 | 1.6 | 8.0 | 0.00 | 0.03 | 0.03 | 58 | 1349.9 |
| 20260507010023 | 8 | 210 | 0.0 | 6.4 | 0.00 | 0.03 | 0.03 | 57 | 1349.4 |
| 20260507005521 | 8 | 218 | 6.4 | 11.3 | 0.00 | 0.03 | 0.03 | 52 | 1349.5 |
| 20260507005017 | 8 | 172 | 6.4 | 17.7 | 0.00 | 0.03 | 0.03 | 52 | 1349.5 |
| 20260507004514 | 8 | 217 | 6.4 | 17.7 | 0.00 | 0.03 | 0.03 | 51 | 1349.3 |
| 20260507004012 | 8 | 199 | 6.4 | 25.7 | 0.00 | 0.03 | 0.03 | 52 | 1349.7 |
| 20260507003507 | 8 | 206 | 12.9 | 24.1 | 0.00 | 0.03 | 0.03 | 52 | 1349.5 |
| 20260507003002 | 8 | 209 | 8.0 | 19.3 | 0.00 | 0.03 | 0.03 | 52 | 1349.4 |
| 20260507002459 | 8 | 161 | 8.0 | 22.5 | 0.00 | 0.03 | 0.03 | 53 | 1349.3 |
| 20260507001955 | 8 | 218 | 8.0 | 14.5 | 0.00 | 0.03 | 0.03 | 53 | 1349.3 |
| 20260507001452 | 8 | 172 | 12.9 | 19.3 | 0.00 | 0.03 | 0.03 | 54 | 1349.4 |
| 20260507000949 | 8 | 221 | 8.0 | 16.1 | 0.00 | 0.03 | 0.03 | 56 | 1349.3 |
| 20260507000445 | 8 | 226 | 9.7 | 20.9 | 0.00 | 0.03 | 0.03 | 55 | 1349.3 |